When you browse on this site, cookies collect data to enhance your experience and personalize the content and advertising you see.
Visit our Privacy Policy to learn more. By continuing to use the site, you agree to this use of cookies and data.
  • Em Portugal
  • Lista de países
  • Para 7 dias
  • Temperatura da água
  • Mapas de satélite
  • Mapa do tempo
  • Widgets de tempo
  • user-avatar
    Iniciar Sessão

    Previsão horária em Bandar Abbas

    Hoje, 22 Janeiro, Terça-feira

    Tempo Temperatura Precipitação Vento Pressão Humidade
    00:00 +19°C° 0 mm 1 m/s 761 mmHg 41%
    01:00 +18°C° 0 mm 1 m/s 761 mmHg 43%
    02:00 +18°C° 0 mm 1 m/s 761 mmHg 43%
    03:00 +18°C° 0 mm 1 m/s 761 mmHg 43%
    04:00 +18°C° 0 mm 1 m/s 761 mmHg 41%
    05:00 +16°C° 0 mm 1 m/s 761 mmHg 39%
    06:00 +16°C° 0 mm 2 m/s 761 mmHg 37%
    07:00 +16°C° 0 mm 2 m/s 761 mmHg 35%
    08:00 +17°C° 0 mm 2 m/s 761 mmHg 31%
    09:00 +19°C° 0 mm 2 m/s 761 mmHg 27%
    10:00 +20°C° 0 mm 2 m/s 762 mmHg 20%
    11:00 +20°C° 0 mm 2 m/s 761 mmHg 21%
    12:00 +22°C° 0 mm 1 m/s 761 mmHg 21%
    13:00 +23°C° 0 mm 1 m/s 761 mmHg 22%
    14:00 +23°C° 0 mm 1 m/s 760 mmHg 24%
    15:00 +23°C° 0 mm 2 m/s 760 mmHg 26%
    16:00 +23°C° 0 mm 2 m/s 759 mmHg 29%
    17:00 +22°C° 0 mm 3 m/s 760 mmHg 34%
    18:00 +21°C° 0 mm 3 m/s 760 mmHg 39%
    19:00 +21°C° 0 mm 3 m/s 760 mmHg 44%
    20:00 +20°C° 0 mm 2 m/s 760 mmHg 47%
    21:00 +20°C° 0 mm 2 m/s 760 mmHg 50%
    22:00 +20°C° 0 mm 1 m/s 761 mmHg 52%
    23:00 +20°C° 0 mm 1 m/s 761 mmHg 53%

    Amanhã, 23 Janeiro, Quarta-feira

    Tempo Temperatura Precipitação Vento Pressão Humidade
    00:00 +20°C° 0 mm 1 m/s 761 mmHg 53%
    01:00 +19°C° 0 mm 1 m/s 761 mmHg 53%
    02:00 +19°C° 0 mm 1 m/s 761 mmHg 54%
    03:00 +18°C° 0 mm 2 m/s 760 mmHg 55%
    04:00 +18°C° 0 mm 2 m/s 760 mmHg 56%
    05:00 +17°C° 0 mm 2 m/s 761 mmHg 56%
    06:00 +17°C° 0 mm 2 m/s 761 mmHg 57%
    07:00 +17°C° 0 mm 3 m/s 761 mmHg 58%
    08:00 +18°C° 0 mm 3 m/s 762 mmHg 53%
    09:00 +19°C° 0 mm 3 m/s 762 mmHg 49%
    10:00 +20°C° 0 mm 3 m/s 762 mmHg 44%
    11:00 +21°C° 0 mm 2 m/s 762 mmHg 43%
    12:00 +23°C° 0 mm 2 m/s 762 mmHg 41%
    13:00 +23°C° 0 mm 2 m/s 761 mmHg 40%
    14:00 +24°C° 0 mm 2 m/s 761 mmHg 40%
    15:00 +24°C° 0 mm 2 m/s 761 mmHg 41%
    16:00 +24°C° 0 mm 2 m/s 760 mmHg 42%
    17:00 +23°C° 0 mm 2 m/s 761 mmHg 45%
    18:00 +23°C° 0 mm 2 m/s 761 mmHg 48%
    19:00 +22°C° 0 mm 1 m/s 762 mmHg 51%
    20:00 +22°C° 0 mm 1 m/s 762 mmHg 54%
    21:00 +21°C° 0 mm 1 m/s 762 mmHg 57%
    22:00 +21°C° 0 mm 1 m/s 763 mmHg 60%
    23:00 +21°C° 0 mm 1 m/s 763 mmHg 61%

    Depois de amanhã, 24 Janeiro, Quinta-feira

    Tempo Temperatura Precipitação Vento Pressão Humidade
    00:00 +20°C° 0 mm 1 m/s 763 mmHg 63%
    01:00 +20°C° 0 mm 1 m/s 763 mmHg 65%
    02:00 +20°C° 0 mm 1 m/s 763 mmHg 66%
    03:00 +19°C° 0 mm 2 m/s 763 mmHg 67%
    04:00 +18°C° 0 mm 2 m/s 763 mmHg 67%
    05:00 +18°C° 0 mm 2 m/s 763 mmHg 68%
    06:00 +18°C° 0 mm 2 m/s 764 mmHg 68%
    07:00 +18°C° 0 mm 2 m/s 764 mmHg 68%
    08:00 +19°C° 0 mm 2 m/s 764 mmHg 62%
    09:00 +20°C° 0 mm 2 m/s 765 mmHg 56%
    10:00 +21°C° 0 mm 2 m/s 765 mmHg 50%
    11:00 +23°C° 0 mm 2 m/s 765 mmHg 45%
    12:00 +24°C° 0 mm 2 m/s 764 mmHg 41%
    13:00 +24°C° 0 mm 1 m/s 764 mmHg 37%
    14:00 +25°C° 0 mm 2 m/s 764 mmHg 36%
    15:00 +25°C° 0 mm 2 m/s 763 mmHg 35%
    16:00 +25°C° 0 mm 2 m/s 763 mmHg 34%
    17:00 +24°C° 0 mm 1 m/s 763 mmHg 38%
    18:00 +24°C° 0 mm 1 m/s 763 mmHg 42%
    19:00 +23°C° 0 mm 1 m/s 764 mmHg 45%
    20:00 +23°C° 0 mm 1 m/s 764 mmHg 47%
    21:00 +20°C° 0 mm 0 m/s 764 mmHg 49%
    22:00 +20°C° 0 mm 0 m/s 765 mmHg 52%
    23:00 +19°C° 0 mm 0 m/s 765 mmHg 53%

    25 Janeiro, Sexta-feira

    Tempo Temperatura Precipitação Vento Pressão Humidade
    00:00 +19°C° 0 mm 0 m/s 764 mmHg 54%
    01:00 +18°C° 0 mm 0 m/s 764 mmHg 55%
    02:00 +18°C° 0 mm 0 m/s 764 mmHg 56%
    03:00 +18°C° 0 mm 0 m/s 764 mmHg 56%
    04:00 +19°C° 0 mm 1 m/s 764 mmHg 57%
    05:00 +19°C° 0 mm 1 m/s 764 mmHg 57%
    06:00 +19°C° 0 mm 1 m/s 764 mmHg 57%
    07:00 +19°C° 0 mm 1 m/s 764 mmHg 57%
    08:00 +20°C° 0 mm 1 m/s 764 mmHg 52%
    09:00 +22°C° 0 mm 1 m/s 765 mmHg 47%
    10:00 +23°C° 0 mm 2 m/s 765 mmHg 42%
    11:00 +24°C° 0 mm 2 m/s 765 mmHg 40%
    12:00 +24°C° 0 mm 2 m/s 764 mmHg 39%
    13:00 +25°C° 0 mm 2 m/s 764 mmHg 37%
    14:00 +25°C° 0 mm 2 m/s 763 mmHg 38%
    15:00 +25°C° 0 mm 2 m/s 763 mmHg 38%
    16:00 +25°C° 0 mm 2 m/s 762 mmHg 39%
    17:00 +25°C° 0 mm 2 m/s 763 mmHg 45%
    18:00 +24°C° 0 mm 2 m/s 763 mmHg 50%
    19:00 +23°C° 0 mm 2 m/s 763 mmHg 56%
    20:00 +23°C° 0 mm 2 m/s 764 mmHg 61%
    21:00 +22°C° 0 mm 1 m/s 764 mmHg 65%
    22:00 +22°C° 0 mm 1 m/s 764 mmHg 70%
    23:00 +22°C° 0 mm 1 m/s 764 mmHg 71%

    26 Janeiro, Sábado

    Tempo Temperatura Precipitação Vento Pressão Humidade
    00:00 +21°C° 0 mm 1 m/s 764 mmHg 73%
    01:00 +21°C° 0 mm 1 m/s 764 mmHg 74%
    02:00 +21°C° 0 mm 1 m/s 764 mmHg 75%
    03:00 +20°C° 0 mm 2 m/s 764 mmHg 77%
    04:00 +19°C° 0 mm 2 m/s 763 mmHg 78%
    05:00 +19°C° 0 mm 2 m/s 764 mmHg 78%
    06:00 +19°C° 0 mm 2 m/s 764 mmHg 79%
    07:00 +19°C° 0 mm 2 m/s 765 mmHg 80%
    08:00 +20°C° 0 mm 2 m/s 765 mmHg 76%
    09:00 +21°C° 0 mm 2 m/s 765 mmHg 72%
    10:00 +23°C° 0 mm 2 m/s 766 mmHg 69%
    11:00 +23°C° 0 mm 2 m/s 765 mmHg 66%
    12:00 +24°C° 0 mm 2 m/s 765 mmHg 63%
    13:00 +25°C° 0 mm 2 m/s 764 mmHg 60%
    14:00 +25°C° 0 mm 2 m/s 764 mmHg 60%
    15:00 +25°C° 0 mm 2 m/s 763 mmHg 60%
    16:00 +25°C° 0 mm 2 m/s 763 mmHg 60%
    17:00 +25°C° 0 mm 2 m/s 763 mmHg 64%
    18:00 +24°C° 0 mm 2 m/s 763 mmHg 68%
    19:00 +24°C° 0 mm 2 m/s 764 mmHg 73%
    20:00 +24°C° 0 mm 1 m/s 764 mmHg 75%
    21:00 +23°C° 0 mm 1 m/s 765 mmHg 77%
    22:00 +23°C° 0 mm 1 m/s 765 mmHg 80%
    23:00 +23°C° 0 mm 1 m/s 765 mmHg 82%

    27 Janeiro, Domingo

    Tempo Temperatura Precipitação Vento Pressão Humidade
    00:00 +22°C° 0 mm 1 m/s 765 mmHg 84%
    01:00 +21°C° 0 mm 2 m/s 765 mmHg 86%
    02:00 +21°C° 0 mm 2 m/s 765 mmHg 87%
    03:00 +20°C° 0 mm 2 m/s 765 mmHg 88%
    04:00 +20°C° 0 mm 2 m/s 765 mmHg 89%
    05:00 +20°C° 0 mm 2 m/s 765 mmHg 90%
    06:00 +20°C° 0 mm 2 m/s 765 mmHg 91%
    07:00 +19°C° 0 mm 2 m/s 766 mmHg 91%
    08:00 +20°C° 0 mm 2 m/s 766 mmHg 86%
    09:00 +21°C° 0 mm 2 m/s 767 mmHg 81%
    10:00 +23°C° 0 mm 2 m/s 767 mmHg 76%
    11:00 +24°C° 0 mm 2 m/s 766 mmHg 71%
    12:00 +25°C° 0 mm 2 m/s 766 mmHg 66%
    13:00 +25°C° 0 mm 2 m/s 765 mmHg 61%
    14:00 +25°C° 0 mm 3 m/s 765 mmHg 62%
    15:00 +25°C° 0 mm 3 m/s 764 mmHg 62%
    16:00 +25°C° 0 mm 3 m/s 764 mmHg 63%
    17:00 +25°C° 0 mm 3 m/s 764 mmHg 67%
    18:00 +25°C° 0 mm 2 m/s 765 mmHg 70%
    19:00 +24°C° 0 mm 2 m/s 765 mmHg 73%
    20:00 +24°C° 0 mm 2 m/s 766 mmHg 75%
    21:00 +24°C° 0 mm 2 m/s 766 mmHg 77%
    22:00 +23°C° 0 mm 1 m/s 766 mmHg 79%
    23:00 +23°C° 0 mm 2 m/s 766 mmHg 80%
    Mostrar mais